Regional Weather Roundup
Issued by NWS

Home | Current Version | Previous Version | Text Only | Print | Product List | Glossary Off
Versions: 1 2 3 4 5 6 7 8 9 10 11 12 13 14 15 16 17 18 19 20 21 22 23 24 25 26 27 28 29 30 31 32 33 34 35 36 37 38 39 40 41 42 43 44 45 46 47 48 49 50

462
ASUS43 KMPX 312210
RWRMN
WEATHER ROUNDUP FOR MINNESOTA
NATIONAL WEATHER SERVICE TWIN CITIES/CHANHASSEN MN
500 PM CDT TUE MAY 31 2016


NOTE: "FAIR" INDICATES FEW OR NO CLOUDS BELOW 12,000 FEET WITH NO
SIGNIFICANT WEATHER AND/OR OBSTRUCTIONS TO VISIBILITY. N/A MEANS
CURRENT SKY AND/OR WEATHER CONDITIONS ARE NOT AVAILABLE.

MNZ060>063-068>070-312300-
   Twin Cities Metro

CITY           SKY/WX    TMP DP  RH WIND       PRES   REMARKS
TWIN CITIES    CLOUDY    71  60  68 S8        29.84F
ST PAUL        CLOUDY    70  62  76 SW6       29.85F
CRYSTAL        CLOUDY    71  56  58 SW7       29.82F
BLAINE         PTSUNNY   72  61  68 SW9       29.84F
EDEN PRAIRIE   CLOUDY    72  56  57 SW6       29.83F
SOUTH ST PAUL  CLOUDY    69  62  80 SW8       29.85F
LAKE ELMO      DRIZZLE   68  64  88 SW7       29.86F
$$
MNZ001>005-007-008-013>017-022>024-027-028-312300-
   Northwest Minnesota

CITY           SKY/WX    TMP DP  RH WIND       PRES   REMARKS
BEMIDJI        MOSUNNY   69  49  49 SW17      29.75S
HALLOCK        PTSUNNY   66  54  63 S20       29.67R
ROSEAU         PTSUNNY   61  54  77 SE12      29.72S
WARROAD        CLOUDY    55  52  88 E15       29.75F
THIEF RVR FALL CLOUDY    64  48  55 S16G22    29.73S
CROOKSTON      PTSUNNY   64  50  59 SW15      29.71F
FOSSTON        PTSUNNY   64  52  63 S17G24    29.75S
DETROIT LAKES  MOSUNNY   68  45  42 SW16G25   29.77F
MOORHEAD       PTSUNNY   68  46  45 S20       29.73F
PARK RAPIDS    MOSUNNY   68  47  46 SW13G24   29.77F
MAHNOMEN       MOCLDY    66  48  53 SW16G26   29.74S
$$
MNZ006-009>011-018-025>026-312300-
   North Central Minnesota

CITY           SKY/WX    TMP DP  RH WIND       PRES   REMARKS
BAUDETTE       CLOUDY    54  51  90 SE13      29.77F
FLAG ISLAND    CLOUDY    54  52  94 E10G16    29.78S
INTL FALLS     CLOUDY    52  50  93 SE10      29.83F FOG
WASKISH        PTSUNNY   61  57  88 E9G16     29.77F
BIG FORK       CLOUDY    57  54  88 SE8       29.82S
LONGVILLE      SUNNY     66  61  82 SE7       29.78F
GRAND RAPIDS   CLOUDY    56  54  93 E8        29.83F
CRANE LAKE     CLOUDY    50  48  93 CALM      29.88F
ORR            CLOUDY    52  48  87 CALM      29.83S
COOK           CLOUDY    54  52  94 SE5       29.86S
WALKER         FAIR      68  50  52 SW16G24   29.77R
$$
MNZ012-019>021-037-312300-
   Northeast Minnesota

CITY           SKY/WX    TMP DP  RH WIND       PRES   REMARKS
DULUTH         CLOUDY    48  46  93 E12       29.88S
ELY            CLOUDY    50  48  93 SE10      29.89S
HIBBING        CLOUDY    52  51  97 SE9       29.85F
EVELETH        CLOUDY    52  50  93 E7        29.87F
DULUTH HARBOR  CLOUDY    45  43  93 NE22G29   29.91S
TWO HARBORS    CLOUDY    52  46  82 NE14G21   29.87F
SILVER BAY     CLOUDY    46  45  93 NE9G20    29.91S
GRAND MARAIS     N/A     47  43  86 NE9G22    29.96F
G MARAIS ARPRT RAIN      45  39  81 NE9G20    29.98S
$$
MNZ029>031-032-039>041-046>048-054>057-064-312300-
   West Central Minnesota

CITY           SKY/WX    TMP DP  RH WIND       PRES   REMARKS
FERGUS FALLS   MOSUNNY   68  46  45 SW17      29.74F
WHEATON        PTSUNNY   70  48  46 SW13      29.79F
MORRIS         SUNNY     72  46  40 SW17G24   29.79F
ALEXANDRIA     MOSUNNY   70  45  40 SW17G23   29.82F
ELBOW LAKE     FAIR      70  47  44 SW22G30   29.79F
WADENA         PTSUNNY   68  52  56 SW15      29.78F
GLENWOOD       MOSUNNY   72  46  40 SW17      29.83S
APPLETON       SUNNY     73  43  33 W14       29.80F
BENSON         MOSUNNY   72  45  37 W12G21    29.82F
ORTONVILLE     PTSUNNY   70  45  40 SW9       29.79F
MADISON        SUNNY     73  45  35 W15       29.81F
WILLMAR        FAIR      73  48  40 SW16      29.85R
$$
MNZ033>034-036-042>043-049>051-058-059-312300-
   Central Minnesota

CITY           SKY/WX    TMP DP  RH WIND       PRES   REMARKS
ST CLOUD       CLOUDY    73  51  46 SW14      29.81F
SAUK CENTRE    MOCLDY    68  51  53 SW13      29.82S
PAYNESVILLE    MOSUNNY   72  47  41 W14       29.83S
AITKIN         MOSUNNY   72  55  56 S12G18    29.78F
PINE RIVER     SUNNY     70  54  56 SW12G17   29.82S
BRAINERD       MOSUNNY   71  51  49 S18       29.80S
STAPLES        PTSUNNY   72  48  43 SW9G16    29.79F
LONG PRAIRIE   FAIR      68  50  52 S17       29.82S
LITTLE FALLS   MOSUNNY   72  46  40 SW9G18    29.81S
LITCHFIELD     SUNNY     73  50  43 W7        29.83F
BUFFALO        MOSUNNY   74  53  47 W8        29.84F
MAPLE LAKE     MOSUNNY   74  56  52 W6        29.84F
HUTCHINSON     MOSUNNY   74  56  52 SW13      29.85F
$$
MNZ037-044-045-052-053-312300-
   East Central Minnesota

CITY           SKY/WX    TMP DP  RH WIND       PRES   REMARKS
PRINCETON      MOSUNNY   75  57  53 SW6       29.82F
MORA           CLOUDY    70  57  64 SW8       29.83F
CAMBRIDGE      CLOUDY    73  57  56 S7        29.81F
RUSH CITY      CLOUDY    71  60  68 SW10G16   29.83F
MOOSE LAKE     CLOUDY    46  45  93 NE3       29.85S
HINCKLEY       CLOUDY    68  63  83 NW3       29.82S
CLOQUET        CLOUDY    46  45  93 E9G16     29.87F
MCGREGOR       PTSUNNY   59  54  82 E9        29.83F
$$
MNZ071>073-080-081-089-090-097-098-312300-
   Southwest Minnesota

CITY           SKY/WX    TMP DP  RH WIND       PRES   REMARKS
MONTEVIDEO     MOSUNNY   75  46  35 W13       29.84F
GRANITE FALLS  MOSUNNY   75  48  38 SW17G24   29.85F
CANBY          SUNNY     76  46  34 SW16      29.83F
MARSHALL       MOSUNNY   73  45  36 W18G25    29.84F
REDWOOD FALLS  SUNNY     72  45  37 SW14G22   29.84S
OLIVIA         SUNNY     66  43  42 W14G22    29.84S
PIPESTONE      SUNNY     72  46  40 W12G18    29.87F
WINDOM         SUNNY     73  46  38 CALM      29.88S
WORTHINGTON    SUNNY     71  47  42 W14       29.89F
JACKSON        MOSUNNY   72  45  37 W10G17    29.89S
TRACY          SUNNY     72  50  46 SW9       29.87S
SLAYTON        SUNNY     71  45  40 W18       29.89S
$$
MNZ065>067-074>077-082>085-091>093-312300-
   South Central Minnesota

CITY           SKY/WX    TMP DP  RH WIND       PRES   REMARKS
MANKATO        CLOUDY    72  55  56 SW7       29.86F
NEW ULM        MOSUNNY   72  54  53 W14       29.85F
ST JAMES       MOSUNNY  N/A N/A N/A SW8       29.88S
FAIRMONT       MOSUNNY   73  52  46 NW12      29.87F
GLENCOE        MOSUNNY   74  57  53 W6        29.83F
FARIBAULT      CLOUDY    66  63  88 S5        29.87F
OWATONNA       RAIN      66  61  82 W5        29.87F
WASECA         CLOUDY    64  59  82 NW7       29.89F
ALBERT LEA     CLOUDY    66  61  82 W5        29.88F
$$
MNZ078>079-086>088-094>096-312300-
   Southeast Minnesota

CITY           SKY/WX    TMP DP  RH WIND       PRES   REMARKS
ROCHESTER      LGT RAIN  67  63  87 W7        29.89F
RED WING       LGT RAIN  68  66  94 W7        29.85S
STANTON        DRIZZLE   67  62  84 W6        29.86S
DODGE CENTER   PTSUNNY   66  64  94 NW9       29.88F
WINONA         RAIN      66  61  82 W5        29.88R
AUSTIN         CLOUDY    68  61  77 W10       29.88F
PRESTON        CLOUDY    62  60  94 CALM      29.89R
$$
ABBREVIATIONS USED IN REMARKS
   TC - TEMPERATURES IN CELSIUS
  WCI - WIND CHILL INDEX
   HX - HEAT INDEX
  VSB - VISIBILITY
$$




USA.gov is the U.S. government's official web portal to all federal, state and local government web resources and services.